Location: B?dimalle
(17.1788°N, 80.5377°E)
Time: 10:31:18
(UTC+00:00)

Tiros 1 despin weight - Pass Details

Date: 23 February 2026
Orbit: 556 x 593 km, 48.2° (Epoch: 10 March)

Event Time Altitude Azimuth Distance (km) Brightness Sun altitude
Rises 04:05:22 0° 178° (S) 2,784 ? 40.9°
Reaches altitude 10° 04:09:46 10° 136° (SE) 1,875 ? 41.8°
Maximum altitude 04:10:26 10° 127° (SE) 1,854 ? 42.0°
Drops below altitude 10° 04:11:06 10° 118° (ESE) 1,872 ? 42.1°
Sets 04:15:27 0° 76° (ENE) 2,758 ? 43.0°
